Location: Demmingen
(48.6757°N, 10.4375°E)
Time: 09:43:12
(UTC+00:00)

Cosmos 2228 Rocket - Pass Details

Date: 23 May 2024
Orbit: 616 x 648 km, 82.5° (Epoch: 15 June)

Event Time Altitude Azimuth Distance (km) Brightness Sun altitude
Exits shadow 00:05:22 48° 203° (SSW) 827 3.2 -19.8°
Maximum altitude 00:06:34 79° 280° (W) 649 3.0 -19.7°
Drops below altitude 10° 00:11:06 10° 8° (N) 2,035 6.9 -19.6°
Sets 00:13:22 0° 9° (N) 2,954 8.2 -19.5°
